[[{"header":{"parameterUnit":"m.s-1","parameterCategory":1,"la1":30.2991,"la2":30.254,"lo1":-89.0895,"lo2":-89.0444,"dy":0.0017,"dx":0.0017,"nx":28,"ny":28,"refTime":"2024-04-06T09:00:00:Z","depth":0,"parameterNumber":2,"parameterNumberName":"U-component_of_WINDS"},"data":[0,0,0,0,0,0,0,0,0,0,0,0,0,0,0,0,0,0,0,0,0,0,0,0,0,0,0,0,0,0,0,0,0,0,0,0,0,0,0,0,0,0,0,0,0,0,0,0,0,0,0,0,0,0,0,0,0,0,-4.0794,-4.0795,0,-4.0843,-4.0843,-4.0844,-4.0714,-4.071,-4.0706,-4.0702,-4.0751,-4.0756,-4.0761,0,0,0,0,0,0,0,0,0,0,0,0,0,-4.0589,-4.0593,-4.0794,-4.0795,-4.0796,-4.0843,-4.0843,-4.0844,-4.0715,-4.071,-4.0705,-4.07,-4.0749,-4.0755,-4.0761,0,0,0,0,0,0,0,0,0,0,0,0,0,-4.0662,-4.0595,-4.0794,-4.0737,-4.0732,-4.0843,-4.0843,-4.0844,-4.0716,-4.071,-4.0704,-4.0698,-4.0747,-4.0755,-4.0762,-4.093,0,0,-4.0785,-4.0789,0,0,0,0,0,0,0,0,-4.0658,-4.0669,-4.0745,-4.0741,-4.0736,-4.0766,-4.0789,-4.0873,-4.0717,-4.0722,-4.0702,-4.0695,-4.0761,-4.0767,-4.0789,-4.0933,-4.0935,-4.0786,-4.0791,-4.0794,-4.0796,0,0,0,0,0,0,0,-4.0653,-4.0667,-4.0813,-4.0746,-4.0741,-4.0708,-4.0712,-4.0804,-4.0775,-4.0721,-4.0712,-4.0719,-4.0757,-4.0782,-4.079,-4.0935,-4.0786,-4.0793,-4.0797,-4.08,-4.1219,-4.1225,0,0,0,0,0,0,-4.0655,-4.0663,-4.0812,-4.0815,-4.0681,-4.0717,-4.0721,-4.0763,-4.0773,-4.0769,-4.0724,-4.0713,-4.0772,-4.0781,-4.0791,-4.0988,-4.0794,-4.0801,-4.0805,-4.1212,-4.122,-4.1227,0,0,0,0,0,0,-4.0651,-4.067,-4.081,-4.0737,-4.0752,-4.0727,-4.0775,-4.0767,-4.0791,-4.0776,-4.077,-4.0756,-4.0768,-4.078,-4.0897,-4.0988,-4.0805,-4.0811,-4.1204,-4.1215,-4.1224,-4.1385,0,0,0,0,0,0,-4.0646,-4.0669,-4.0733,-4.0739,-4.0756,-4.0916,-4.078,-4.0772,-4.0805,-4.0791,-4.0804,-4.08,-4.0764,-4.0886,-4.0904,-4.0995,-4.0817,-4.1196,-4.1209,-4.122,-4.1371,-4.1399,-4.1422,0,0,0,0,0,-4.0639,-4.0776,-4.0737,-4.0756,-4.0836,-4.0921,-4.0931,-4.0887,-4.0813,-4.0877,-4.0867,-4.0799,-4.0975,-4.0899,-4.0918,-4.1013,-4.119,-4.1205,-4.122,-4.1359,-4.1393,-4.1422,0,0,0,0,0,0,-4.0782,-4.0776,-4.0732,-4.0876,-4.09,-4.0899,-4.0978,-4.0925,-4.097,-4.0955,-4.0898,-4.0903,-4.103,-4.1033,-4.0948,-4.1176,-4.107,-4.1089,-4.1169,-4.1201,-4.1227,-4.1223,-4.0824,0,0,0,0,0,-4.083,-4.09,-4.0891,-4.1019,-4.1033,-4.1004,-4.104,-4.1004,-4.1027,-4.1036,-4.1034,-4.1059,-4.1119,-4.116,-4.1215,-4.1371,-4.1371,-4.1445,-4.1471,-4.1492,-4.151,-4.1592,-4.1624,-4.1276,-4.1275,-4.1275,0,0,-4.093,-4.0936,-4.0983,-4.1047,-4.1062,-4.1136,-4.1014,-4.1097,-4.1151,-4.1049,-4.1158,-4.1159,-4.1182,-4.1319,-4.1379,-4.1325,-4.1606,-4.1511,-4.1528,-4.1534,-4.161,-4.1643,-4.1673,-4.1286,-4.1284,-4.1282,0,0,-4.115,-4.1162,-4.1269,-4.1286,-4.131,-4.129,-4.1316,-4.1323,-4.1319,-4.1429,-4.1354,-4.1417,-4.1522,-4.1542,-4.1566,-4.1794,-4.1733,-4.1813,-4.1947,-4.2028,-4.2056,-4.208,-4.2161,-4.2191,-4.183,-4.1831,-4.1831,0,-4.1271,-4.138,-4.133,-4.1419,-4.1449,-4.1361,-4.1468,-4.1487,-4.1528,-4.1551,-4.149,-4.1621,-4.163,-4.177,-4.1826,-4.1848,-4.1876,-4.1811,-4.2056,-4.2079,-4.2101,-4.2178,-4.2208,-4.184,-4.1839,-4.1838,-4.1837,0,-4.1527,-4.1604,-4.1687,-4.1729,-4.1769,-4.1867,-4.1832,-4.1878,-4.1839,-4.1825,-4.1938,-4.1946,-4.2001,-4.2032,-4.1994,-4.2167,-4.2133,-4.2065,-4.1957,-4.2145,-4.2216,-4.2245,-4.1854,-4.1851,-4.1848,-4.1845,0,0,-4.1838,-4.1852,-4.1883,-4.1901,-4.1921,-4.1979,-4.2073,-4.2127,-4.2167,-4.2198,-4.2275,-4.2366,-4.2304,-4.2331,-4.2295,-4.2366,-4.2546,-4.2289,-4.2289,-4.2337,-4.2736,-4.2787,-4.2822,-4.2506,-4.2511,-4.2516,-4.2734,0,-4.2055,-4.2216,-4.2175,-4.2335,-4.2405,-4.2322,-4.2403,-4.2424,-4.2414,-4.2471,-4.2459,-4.2525,-4.2438,-4.2453,-4.252,-4.251,-4.2625,-4.2494,-4.2577,-4.258,-4.2573,-4.2859,-4.2912,-4.3118,-4.2761,-4.2766,-4.2769,0,-4.2329,-4.2372,-4.2539,-4.2547,-4.2575,-4.2649,-4.2695,-4.2751,-4.2773,-4.276,-4.2792,-4.2741,-4.2833,-4.2725,-4.2851,-4.2762,-4.2793,-4.2794,-4.2801,-4.2807,-4.2686,-4.2872,-4.3182,-4.3213,-4.2813,-4.2809,-4.2806,0,-4.2539,-4.2638,-4.275,-4.2768,-4.2781,-4.2835,-4.2843,-4.2859,-4.2894,-4.2934,-4.2956,-4.3007,-4.3034,-4.3074,-4.3039,-4.2963,-4.317,-4.3059,-4.3162,-4.3163,-4.3209,-4.3207,-4.3529,-4.323,-4.323,-4.3229,-4.3229,0,-4.2785,-4.2891,-4.2845,-4.2914,-4.303,-4.2981,-4.3097,-4.3095,-4.311,-4.3177,-4.3108,-4.3173,-4.3122,-4.3182,-4.3155,-4.3263,-4.3276,-4.3268,-4.326,-4.3275,-4.3276,-4.3294,-4.3279,-4.3237,-4.3236,-4.3234,-4.3233,0,-4.3039,-4.3012,-4.313,-4.3133,-4.3136,-4.3221,-4.3223,-4.3287,-4.3271,-4.3357,-4.3375,-4.3351,-4.3418,-4.3387,-4.3457,-4.3438,-4.3577,-4.355,-4.3571,-4.3563,-4.3668,-4.3658,-4.4013,-4.4057,-4.3731,-4.3734,-4.3737,0,-4.3198,-4.3277,-4.3289,-4.3329,-4.3342,-4.3407,-4.3443,-4.3398,-4.3438,-4.3469,-4.353,-4.3591,-4.3637,-4.3748,-4.3737,-4.379,-4.3763,-4.3883,-4.377,-4.3782,-4.3764,-4.376,-4.3767,-4.3906,-4.391,-4.3913,-4.3915,0,-4.3482,-4.3465,-4.3519,-4.357,-4.3614,-4.3652,-4.3683,-4.372,-4.3676,-4.3724,-4.3792,-4.3828,-4.39,-4.3961,-4.4008,-4.4015,-4.3959,-4.3951,-4.3978,-4.3993,-4.4002,-4.3998,-4.3632,-4.3943,-4.394,-4.3938,-4.3937,-4.3936,-4.3693,-4.3759,-4.3778,-4.3841,-4.386,-4.3891,-4.3951,-4.3943,-4.4,-4.4055,-4.4025,-4.4104,-4.4123,-4.418,-4.4195,-4.4256,-4.4208,-4.4247,-4.4256,-4.4267,-4.4281,-4.3993,-4.4264,-4.4264,-4.4263,-4.4262,-4.4261,0,-4.3973,-4.3981,-4.4039,-4.4086,-4.4135,-4.4078,-4.411,-4.4155,-4.4226,-4.4249,-4.4296,-4.4374,-4.4434,-4.4427,-4.4481,-4.4531,-4.4507,-4.4547,-4.4543,-4.4545,-4.432,-4.4292,-4.4566,-4.4566,-4.4566,-4.4566,-4.4566,-4.4566,-4.4125,-4.4234,-4.422,-4.4338,-4.4345,-4.4423,-4.4446,-4.4474,-4.4492,-4.4582,-4.4632,-4.4627,-4.4638,-4.4693,-4.4745,-4.4741,-4.4764,-4.4814,-4.4801,-4.4591,-4.4561,-4.4532,-4.4505,-4.482,-4.482,-4.5021,-4.5023,-4.5024]},{"header":{"parameterUnit":"m.s-1","parameterCategory":1,"la1":30.2991,"la2":30.254,"lo1":-89.0895,"lo2":-89.0444,"dy":0.0017,"dx":0.0017,"nx":28,"ny":28,"refTime":"2024-04-06T09:00:00:Z","depth":0,"parameterNumber":3,"parameterNumberName":"V-component_of_WINDS"},"data":[0,0,0,0,0,0,0,0,0,0,0,0,0,0,0,0,0,0,0,0,0,0,0,0,0,0,0,0,0,0,0,0,0,0,0,0,0,0,0,0,0,0,0,0,0,0,0,0,0,0,0,0,0,0,0,0,0,0,-3.1459,-3.1459,0,-3.1495,-3.1495,-3.1496,-3.1467,-3.1466,-3.1464,-3.1463,-3.1499,-3.1501,-3.1503,0,0,0,0,0,0,0,0,0,0,0,0,0,-3.1361,-3.1363,-3.1459,-3.1459,-3.146,-3.1495,-3.1495,-3.1496,-3.1467,-3.1466,-3.1464,-3.1463,-3.1498,-3.1501,-3.1503,0,0,0,0,0,0,0,0,0,0,0,0,0,-3.1401,-3.1364,-3.1459,-3.145,-3.1449,-3.1495,-3.1495,-3.1496,-3.1467,-3.1466,-3.1464,-3.1462,-3.1497,-3.15,-3.1503,-3.156,0,0,-3.1513,-3.1514,0,0,0,0,0,0,0,0,-3.1399,-3.1405,-3.145,-3.145,-3.145,-3.1475,-3.1474,-3.1517,-3.1468,-3.146,-3.1463,-3.1461,-3.1492,-3.1496,-3.1506,-3.1561,-3.1563,-3.1513,-3.1515,-3.1517,-3.1518,0,0,0,0,0,0,0,-3.1396,-3.1403,-3.1473,-3.1451,-3.1451,-3.1443,-3.1446,-3.1482,-3.1486,-3.1461,-3.1459,-3.1464,-3.1492,-3.1503,-3.1507,-3.1563,-3.1513,-3.1516,-3.1518,-3.1519,-3.1664,-3.1665,0,0,0,0,0,0,-3.1395,-3.1401,-3.1472,-3.1474,-3.1419,-3.1446,-3.145,-3.1468,-3.1486,-3.1487,-3.1465,-3.1462,-3.1499,-3.1503,-3.1508,-3.1573,-3.1517,-3.152,-3.1521,-3.1662,-3.1664,-3.1666,0,0,0,0,0,0,-3.1393,-3.1401,-3.147,-3.1437,-3.1445,-3.1449,-3.1471,-3.147,-3.1482,-3.1489,-3.1489,-3.1477,-3.1498,-3.1504,-3.1547,-3.1574,-3.1521,-3.1524,-3.1659,-3.1662,-3.1665,-3.1706,0,0,0,0,0,0,-3.139,-3.1401,-3.1423,-3.1438,-3.1447,-3.1509,-3.1472,-3.1472,-3.1488,-3.1484,-3.15,-3.1501,-3.1497,-3.1542,-3.155,-3.1578,-3.1526,-3.1657,-3.1661,-3.1664,-3.1702,-3.171,-3.1716,0,0,0,0,0,-3.1387,-3.1434,-3.1425,-3.1433,-3.1475,-3.1511,-3.1516,-3.1511,-3.149,-3.1512,-3.1516,-3.15,-3.157,-3.1547,-3.1555,-3.1584,-3.1655,-3.166,-3.1664,-3.1699,-3.1708,-3.1716,0,0,0,0,0,0,-3.1422,-3.1435,-3.1426,-3.1479,-3.1494,-3.1506,-3.1534,-3.1522,-3.1543,-3.1539,-3.1531,-3.1535,-3.158,-3.1586,-3.156,-3.1638,-3.1609,-3.1615,-3.1633,-3.1642,-3.1649,-3.1646,-3.1529,0,0,0,0,0,-3.1436,-3.1465,-3.1475,-3.152,-3.1528,-3.153,-3.1545,-3.154,-3.1555,-3.1561,-3.1569,-3.1584,-3.1609,-3.1626,-3.1649,-3.1702,-3.1704,-3.1727,-3.1734,-3.174,-3.1745,-3.1771,-3.1781,-3.1681,-3.168,-3.168,0,0,-3.1466,-3.1476,-3.1495,-3.1528,-3.1539,-3.1568,-3.1536,-3.1568,-3.1589,-3.1566,-3.1607,-3.1613,-3.1629,-3.1676,-3.1698,-3.1683,-3.1773,-3.1745,-3.175,-3.1752,-3.1777,-3.1786,-3.1795,-3.1684,-3.1683,-3.1682,0,0,-3.1533,-3.1545,-3.1583,-3.1595,-3.1612,-3.1612,-3.1621,-3.1635,-3.1638,-3.1679,-3.1662,-3.1686,-3.173,-3.1741,-3.1753,-3.1822,-3.1808,-3.183,-3.1868,-3.1893,-3.1901,-3.1908,-3.1932,-3.194,-3.1836,-3.1836,-3.1836,0,-3.1568,-3.1611,-3.1605,-3.1637,-3.1651,-3.1632,-3.167,-3.1681,-3.1705,-3.1715,-3.1698,-3.1751,-3.1761,-3.181,-3.1827,-3.1837,-3.1846,-3.1828,-3.1901,-3.1908,-3.1914,-3.1936,-3.1945,-3.1838,-3.1838,-3.1838,-3.1837,0,-3.1651,-3.1681,-3.171,-3.1733,-3.175,-3.1785,-3.1783,-3.1801,-3.1793,-3.1795,-3.1835,-3.1846,-3.187,-3.1881,-3.1875,-3.1929,-3.1919,-3.1902,-3.1872,-3.1926,-3.1947,-3.1955,-3.1842,-3.1841,-3.184,-3.1839,0,0,-3.1744,-3.1761,-3.1772,-3.1781,-3.1797,-3.182,-3.1853,-3.1877,-3.1892,-3.1908,-3.1935,-3.1972,-3.1955,-3.1968,-3.1962,-3.1985,-3.2037,-3.1965,-3.1965,-3.1977,-3.2096,-3.2108,-3.2118,-3.2028,-3.203,-3.2031,-3.2094,0,-3.1811,-3.187,-3.1864,-3.1919,-3.1945,-3.1926,-3.1955,-3.1967,-3.1969,-3.1991,-3.1992,-3.2018,-3.1995,-3.2002,-3.2024,-3.2027,-3.2061,-3.2022,-3.2052,-3.2053,-3.2048,-3.2129,-3.2143,-3.2202,-3.2102,-3.2103,-3.2104,0,-3.1898,-3.1917,-3.1975,-3.1985,-3.1996,-3.2022,-3.2042,-3.2063,-3.2076,-3.2076,-3.2089,-3.2079,-3.2111,-3.208,-3.2123,-3.2097,-3.2108,-3.2111,-3.2113,-3.2115,-3.2082,-3.2132,-3.2221,-3.2229,-3.2117,-3.2116,-3.2115,0,-3.1958,-3.1998,-3.2037,-3.2046,-3.2059,-3.2077,-3.2083,-3.2094,-3.2108,-3.2126,-3.2134,-3.2155,-3.2166,-3.2182,-3.2177,-3.2156,-3.222,-3.219,-3.222,-3.222,-3.2234,-3.2233,-3.2324,-3.2243,-3.2243,-3.2243,-3.2242,0,-3.2034,-3.2069,-3.2064,-3.2088,-3.2126,-3.2118,-3.2156,-3.216,-3.217,-3.2193,-3.2178,-3.22,-3.2192,-3.2213,-3.2209,-3.2244,-3.225,-3.2249,-3.2248,-3.225,-3.225,-3.2258,-3.2253,-3.2245,-3.2244,-3.2244,-3.2244,0,-3.2108,-3.2105,-3.2146,-3.2155,-3.2157,-3.2185,-3.2192,-3.2214,-3.2214,-3.2243,-3.225,-3.2249,-3.2273,-3.2269,-3.2296,-3.2293,-3.2337,-3.2331,-3.2333,-3.2331,-3.236,-3.2357,-3.2459,-3.2471,-3.2382,-3.2383,-3.2384,0,-3.2156,-3.2183,-3.2193,-3.2208,-3.2215,-3.2239,-3.2252,-3.2244,-3.2259,-3.2274,-3.2294,-3.2316,-3.2334,-3.2373,-3.2375,-3.2394,-3.2388,-3.2422,-3.2391,-3.2392,-3.2387,-3.2385,-3.2387,-3.2428,-3.2429,-3.243,-3.2431,0,-3.2241,-3.2238,-3.2258,-3.2278,-3.2294,-3.2309,-3.2323,-3.2335,-3.2328,-3.2345,-3.2369,-3.2383,-3.241,-3.2432,-3.245,-3.2455,-3.2441,-3.2441,-3.2448,-3.2451,-3.245,-3.2449,-3.2348,-3.2438,-3.2437,-3.2437,-3.2437,-3.2436,-3.2303,-3.2325,-3.2335,-3.2357,-3.2366,-3.2379,-3.2399,-3.24,-3.242,-3.2441,-3.2435,-3.2462,-3.2472,-3.2495,-3.2502,-3.2522,-3.2509,-3.2521,-3.2524,-3.2526,-3.2529,-3.2447,-3.2526,-3.2525,-3.2525,-3.2525,-3.2525,0,-3.2386,-3.2391,-3.2412,-3.243,-3.2447,-3.2433,-3.2446,-3.2461,-3.2485,-3.2495,-3.2512,-3.2539,-3.256,-3.2562,-3.2581,-3.2597,-3.2591,-3.2602,-3.2601,-3.2602,-3.254,-3.2531,-3.2606,-3.2606,-3.2606,-3.2606,-3.2606,-3.2606,-3.2431,-3.2467,-3.2464,-3.2504,-3.2508,-3.2534,-3.2543,-3.2553,-3.2561,-3.2592,-3.2609,-3.261,-3.2617,-3.2636,-3.2653,-3.2653,-3.2661,-3.2674,-3.2672,-3.2614,-3.2606,-3.2598,-3.259,-3.2676,-3.2676,-3.2731,-3.2732,-3.2732]}]]